Probability
0 0 0 0 0 0 0 0 0 0 0 0 0 0 0 0 0 0 0 0 0 0 0 0 0 0 0 0 0 0 1 2 2 3 4 3 2 2 1 1 1 2 2 2
0 0 0 0 0 0 0 0 0 0 0 0 0 0 0 0 0 0 0 0 0 0 0 0 0 0 0 0 0 0 0 1 1 2 3 3 2 1 0 0 0 1 2 2
0 0 0 0 0 0 0 0 0 0 0 0 0 0 0 0 0 0 0 0 0 0 0 0 0 0 0 0 0 0 0 0 0 1 2 2 1 0 0 0 0 0 1 2
0 0 0 0 0 0 0 0 0 0 0 0 0 0 0 0 0 0 0 0 0 0 0 0 0 0 0 0 0 0 1 1 0 0 1 1 1 0 0 0 0 0 0 1
0 0 0 0 0 0 0 0 0 0 0 0 0 0 0 0 0 0 0 0 0 0 0 0 0 0 0 0 0 1 2 1 0 0 0 0 0 0 0 0 0 0 0 0
0 0 0 0 0 0 0 0 0 0 0 0 0 0 0 0 0 0 0 0 0 0 0 0 0 0 0 0 0 1 2 1 0 0 0 0 0 0 1 1 0 0 0 0
0 0 0 0 0 0 0 0 0 0 0 0 0 0 0 0 0 0 0 0 0 0 0 0 0 0 0 0 0 1 1 0 0 0 0 0 0 0 1 1 0 0 0 0
0 0 0 0 0 0 0 0 0 0 0 0 0 0 0 0 0 0 0 0 0 0 0 0 0 0 0 0 0 0 0 0 0 0 0 0 0 0 1 1 0 0 0 0
0 0 0 0 0 0 0 0 0 0 0 0 0 0 0 0 0 0 0 0 0 0 0 0 0 0 0 0 0 0 0 0 0 0 0 0 0 0 0 0 0 0 0 0
0 0 0 0 0 0 0 0 0 0 0 0 0 0 0 0 0 0 0 0 0 0 0 0 0 0 0 0 0 0 0 0 0 0 0 0 0 0 0 0 0 0 0 0
0 0 0 0 0 0 0 0 0 0 0 0 0 0 0 0 0 0 0 0 0 0 0 0 0 0 0 0 0 0 0 0 0 0 0 0 0 0 0 0 0 0 0 0
0 0 0 0 0 0 0 0 0 0 0 0 0 0 0 0 0 0 0 0 0 0 0 0 0 0 0 0 0 0 0 0 0 0 0 0 0 0 0 0 0 0 0 0
0 0 0 0 0 0 0 0 0 0 0 0 0 0 0 0 0 0 0 0 0 0 0 0 0 0 0 0 0 0 0 0 0 0 0 0 0 0 0 0 0 0 0 0
0 0 0 0 0 0 0 0 0 0 0 0 0 0 0 0 0 0 0 0 0 0 0 0 0 0 0 0 0 0 0 0 0 0 0 0 0 0 0 0 0 0 0 0
0 0 0 0 0 0 0 0 0 0 0 0 0 0 0 0 0 0 0 0 0 0 0 0 0 0 0 0 0 0 0 0 0 0 0 0 0 0 0 0 0 0 0 0
0 0 0 0 0 0 0 0 0 0 0 0 0 0 0 0 0 0 0 0 0 0 0 0 0 0 0 0 0 0 0 0 0 0 0 0 0 0 0 0 0 0 0 0
0 0 0 0 0 0 0 0 0 0 0 0 0 0 0 0 0 0 0 0 0 0 0 0 0 0 0 0 0 0 0 0 0 0 0 0 0 0 0 0 0 0 0 0
0 0 0 0 0 0 0 0 0 0 0 0 0 0 0 0 0 0 0 0 0 0 0 0 0 0 0 0 0 0 0 0 0 0 0 0 0 0 0 0 0 0 0 0
0 0 0 0 0 0 0 0 0 0 0 0 0 0 0 0 0 0 0 0 0 0 0 0 0 0 0 0 0 0 0 0 0 0 0 0 0 0 0 0 0 0 0 0
0 0 0 0 0 0 0 0 0 0 0 0 0 0 0 0 0 0 0 0 0 0 0 0 0 0 0 0 0 0 0 0 0 0 0 0 0 0 0 0 0 0 0 0
0 0 0 0 0 0 0 0 0 0 0 0 0 0 0 0 0 0 0 0 0 0 0 0 0 0 0 0 0 0 0 0 0 0 0 0 0 0 0 0 0 0 0 0
0 0 0 0 0 0 0 0 0 0 0 0 0 0 0 0 0 0 0 0 0 0 0 0 0 0 0 0 0 0 0 0 0 0 0 0 0 0 0 0 0 0 1 1
0 0 0 0 0 0 0 0 0 0 0 0 0 0 0 0 0 0 0 0 0 0 0 0 0 0 0 0 0 0 0 0 0 0 0 0 0 0 0 0 0 0 0 0
0 0 0 0 0 0 0 0 0 0 0 0 0 0 0 0 0 0 0 0 0 0 0 0 0 0 0 0 0 0 0 0 0 0 0 0 0 0 0 0 0 0 0 0
0 0 0 0 0 0 0 0 0 0 0 0 0 0 0 0 0 0 0 0 0 0 0 0 0 0 0 0 0 0 0 0 0 0 0 0 0 0 0 0 0 0 0 0
0 0 0 0 0 0 0 0 0 0 0 0 0 0 0 0 0 0 0 0 0 0 0 0 0 0 0 0 0 0 0 0 0 0 0 0 0 0 0 0 0 0 0 0
Wind_Speed
2 4 5 6 6 3 4 5 6 4 2 5 8 10 8 5 5 5 4 4 3 3 2 2 2 2 1 1 1 1 1 2 2 2 2 2 2 2 2 2 2 3 4 4
4 5 4 3 4 4 4 6 6 3 2 5 7 11 8 6 6 6 5 4 3 3 2 2 2 1 1 1 1 1 1 2 2 2 2 2 2 2 2 2 2 3 3 4
5 1 4 4 4 6 6 7 6 4 3 4 6 8 7 5 5 4 4 4 4 4 3 3 2 2 2 2 2 2 3 2 2 3 2 1 1 1 2 2 2 3 4 4
3 2 4 5 5 6 6 4 5 4 5 4 3 7 6 5 6 5 5 4 4 4 4 3 3 3 3 3 3 3 3 2 2 3 4 4 3 3 3 3 3 3 3 4
3 3 4 5 5 5 2 2 4 5 5 5 4 6 6 4 7 6 5 5 4 4 4 4 3 3 3 3 3 3 3 2 2 3 4 4 4 4 3 3 3 3 3 3
1 1 3 3 2 3 3 3 2 2 4 7 6 8 7 5 6 5 4 3 3 3 3 3 3 3 3 3 3 3 2 2 2 2 3 4 5 5 4 4 4 3 2 2
3 3 2 2 4 4 4 4 3 4 5 6 3 7 8 2 3 4 4 4 3 3 3 3 4 4 4 4 3 3 3 3 3 3 3 3 4 5 5 5 4 3 3 2
6 5 5 4 4 5 7 6 4 5 5 3 4 8 4 1 2 3 4 4 3 3 3 4 4 4 4 4 4 3 3 3 3 3 3 3 3 3 3 4 4 4 3 3
5 4 2 2 1 4 6 5 2 1 1 5 6 6 6 3 3 3 3 3 3 4 4 4 4 4 4 4 4 4 3 3 3 3 3 3 3 3 3 3 4 3 3 3
2 3 2 2 2 1 2 4 4 4 5 7 6 7 5 4 5 3 3 3 4 3 4 4 4 4 4 4 4 4 3 3 3 3 3 3 3 3 3 3 4 4 4 4
2 3 3 4 6 6 5 5 4 4 4 6 6 4 1 3 3 3 3 3 3 3 4 4 5 4 4 4 4 4 3 4 3 3 3 3 3 3 3 3 4 4 4 4
2 2 3 3 1 3 5 5 6 5 5 5 6 5 3 2 2 2 3 3 3 4 4 4 4 4 4 4 4 4 4 4 4 3 3 3 3 3 3 4 4 4 4 4
4 4 3 3 3 4 5 5 5 2 3 5 7 5 3 0 2 3 3 4 4 4 4 4 4 4 4 4 5 5 5 4 4 4 3 4 4 4 4 4 4 4 4 5
2 4 6 7 2 4 6 8 8 7 7 8 11 10 6 5 5 5 5 5 5 5 5 5 5 5 5 5 5 5 5 5 4 4 4 4 4 4 5 4 4 4 4 5
3 4 5 5 4 5 7 9 11 13 12 11 10 11 12 8 7 7 6 6 5 6 6 5 5 5 5 5 5 5 5 5 4 4 5 5 5 5 4 4 4 4 5 5
2 3 3 4 4 5 8 11 13 14 14 14 13 15 9 7 6 7 7 6 6 7 7 6 6 6 6 6 6 6 6 5 5 5 5 5 4 4 4 4 4 4 5 5
4 4 3 3 1 4 9 10 13 11 11 11 14 11 5 6 8 8 7 7 8 7 7 7 7 7 7 7 7 6 6 5 5 5 5 5 4 4 4 5 5 5 5 5
5 4 2 2 2 8 2 1 6 9 11 12 11 9 7 8 8 8 7 7 7 7 7 7 7 7 7 7 6 5 5 5 5 5 5 4 4 4 4 4 4 4 4 4
4 4 3 3 5 7 4 3 4 6 8 9 10 10 8 5 7 6 4 4 5 7 7 7 7 7 7 6 5 4 5 4 4 4 5 4 4 4 4 4 5 4 4 4
2 3 3 4 5 6 1 2 1 3 6 3 6 7 5 3 5 3 2 5 6 6 6 5 5 6 5 5 4 4 4 4 4 5 5 4 4 4 4 5 5 4 4 4
4 4 6 6 6 7 0 2 4 5 3 2 3 4 4 5 5 5 5 6 5 5 5 5 5 4 5 4 4 4 4 4 4 4 4 4 4 4 4 4 4 4 4 4
7 6 7 6 7 6 4 5 5 3 3 2 3 3 4 4 4 5 5 5 5 5 5 5 4 4 4 3 3 4 4 4 4 4 4 4 3 3 3 4 3 3 3 3
7 5 4 7 5 1 3 4 2 2 3 3 4 3 3 3 4 4 4 4 5 5 5 4 4 4 4 3 3 4 4 3 4 3 3 3 3 3 3 3 3 3 3 3
4 2 4 5 6 4 4 4 4 3 4 4 3 3 3 4 4 4 4 4 4 5 4 4 4 4 4 4 3 4 4 3 3 3 3 3 3 3 3 3 3 3 3 3
3 5 4 6 6 5 5 5 5 4 3 2 3 3 3 3 4 4 4 4 4 4 4 4 4 5 5 4 4 3 3 3 3 3 3 3 3 3 3 3 3 4 4 4
5 6 6 6 4 4 4 2 3 3 3 3 3 3 3 3 3 4 3 4 4 4 4 4 5 5 5 4 4 4 3 3 3 3 3 3 3 3 3 3 3 4 5 5
Wind_Direction
163 184 200 203 218 255 219 223 238 249 283 263 256 266 267 262 262 262 263 260 257 259 283 304 306 302 310 325 290 274 276 266 230 201 204 216 225 225 223 226 227 220 216 211
170 211 212 203 203 207 217 226 241 258 278 272 273 272 266 251 252 257 258 259 263 266 259 281 287 281 296 299 300 283 264 257 251 241 229 232 233 230 229 227 222 222 221 216
195 171 192 191 190 208 229 239 246 262 287 253 279 262 233 227 229 239 250 257 261 262 270 277 281 279 282 287 290 286 269 254 253 245 229 211 213 216 218 221 226 229 229 229
207 191 186 197 213 222 234 229 241 247 253 249 264 273 232 214 224 236 243 248 254 259 269 282 291 294 291 288 285 274 271 270 258 237 224 221 224 230 237 234 236 239 236 237
190 189 199 213 222 223 230 196 227 241 244 259 229 253 251 205 234 240 239 244 250 261 270 280 287 291 293 294 289 278 270 266 255 239 233 226 231 238 239 235 239 241 239 239
172 203 235 229 212 202 153 142 155 200 221 244 226 239 259 211 231 235 234 247 257 270 284 293 301 303 304 306 301 291 279 277 271 253 243 234 230 229 228 231 238 242 243 239
188 191 189 191 164 169 191 193 207 212 221 240 184 236 254 233 223 241 253 261 274 281 290 300 308 310 309 308 305 295 289 289 281 263 253 249 245 236 233 233 233 238 247 251
198 205 187 197 208 195 204 220 228 238 245 247 202 239 253 211 249 258 260 262 270 288 297 300 307 309 306 304 300 298 294 291 288 274 268 264 262 249 244 242 240 241 247 251
210 196 168 203 244 199 187 212 265 250 272 263 237 249 260 219 232 238 248 265 280 296 303 307 314 314 309 305 301 296 291 290 289 283 276 267 264 257 253 252 246 247 251 253
216 202 193 199 195 203 249 171 182 206 233 251 250 246 241 205 217 219 240 272 299 306 309 313 319 321 319 316 311 305 296 293 292 286 279 275 267 269 264 260 253 250 253 254
219 194 187 203 213 205 180 185 206 208 246 252 261 249 173 213 213 232 263 288 301 303 306 313 318 320 318 317 316 308 303 299 297 292 280 273 271 269 267 261 261 257 255 255
183 204 211 224 283 278 230 209 195 216 221 238 264 268 84 215 243 258 280 300 308 310 311 314 316 316 316 315 314 310 303 298 295 292 287 279 268 261 259 261 265 265 260 257
177 191 194 197 195 198 226 219 215 219 215 222 240 252 93 286 285 293 296 307 313 316 318 316 314 311 312 312 310 307 302 295 293 288 281 275 269 263 261 262 264 265 264 261
195 216 234 243 246 194 222 222 211 207 225 236 241 260 262 278 291 296 298 301 305 306 304 308 309 309 310 309 307 303 298 295 291 283 275 271 270 267 264 263 259 261 263 260
193 227 239 266 268 237 238 229 217 222 232 243 254 256 265 277 284 288 288 290 292 297 302 303 301 304 307 305 303 300 298 294 287 279 272 270 272 270 266 262 260 259 259 258
193 215 221 252 250 245 252 242 228 231 237 245 261 265 268 278 279 285 288 284 283 291 298 300 299 300 300 300 298 297 294 292 285 274 272 274 271 269 268 261 259 258 258 255
182 176 209 244 288 266 252 231 220 225 228 228 242 252 278 280 279 284 285 276 275 282 287 290 293 294 294 293 293 291 292 290 283 275 274 276 273 269 270 265 257 259 259 256
175 178 203 243 224 238 249 143 216 230 240 232 246 261 263 270 284 282 272 264 273 282 285 289 290 291 293 291 289 289 289 283 280 278 275 274 270 266 270 269 261 260 260 259
201 183 190 216 246 268 264 204 201 221 253 232 241 259 272 290 292 267 241 260 280 286 288 291 292 291 291 289 287 285 280 283 283 282 280 278 269 264 265 267 268 263 259 259
147 183 200 210 239 250 261 118 174 203 258 209 238 263 272 277 272 285 321 302 296 293 293 297 299 295 293 293 285 276 278 282 285 289 286 280 270 266 267 270 272 265 257 258
168 187 210 221 241 263 298 140 169 219 295 351 261 264 252 248 273 306 310 305 303 303 303 303 299 293 293 291 278 274 279 282 291 292 287 279 274 273 273 273 270 265 260 263
187 186 197 201 224 245 138 158 208 286 344 305 279 269 258 267 290 295 300 307 311 312 312 310 305 302 301 294 274 275 281 289 293 289 285 283 283 281 274 271 269 265 262 264
215 213 205 212 231 3 178 221 274 306 290 291 287 277 261 268 280 292 302 306 307 310 314 317 312 309 311 307 283 280 291 294 290 287 286 287 288 286 281 276 273 270 264 262
214 212 227 251 256 258 247 253 269 276 281 287 282 273 263 264 273 285 294 301 306 311 315 316 314 311 314 316 303 290 299 297 289 288 290 289 287 288 283 277 270 269 266 264
209 185 218 248 268 283 250 246 261 271 279 288 295 287 269 264 273 279 287 295 302 308 313 313 312 313 316 319 318 313 306 297 290 292 290 286 279 280 281 279 277 274 269 267
201 201 210 239 240 242 266 279 261 250 264 269 279 292 293 276 276 287 292 298 303 309 314 317 317 317 318 322 323 324 317 301 291 288 289 283 281 282 281 285 295 289 277 283